This demonstration page uses our WeatherBlox Daily Observations layout. Learn more.

Left ArrowRight Arrow

34.02893, -84.19858

Hourly Observations for August 16, 2015

Temp ( °F °C ) Dew Point ( °F °C ) Humidity (%) Winds ( mph kmh ) Pressure ( in mb ) Visibility ( mi km ) Precip ( " mm )
12:53 am 00:53 Mostly Cloudy 77 25 65 18.3 66 66 Calm 30.10 1019 10 16 0.00 0.00
1:53 am 01:53 Mostly Cloudy 76 24.4 66 18.9 72 72 ESE 5 7 30.10 1019 10 16 0.00 0.00
2:53 am 02:53 Partly Cloudy 74 23.3 66 18.9 76 76 Calm 30.10 1019 10 16 0.00 0.00
3:53 am 03:53 Cloudy 74 23.3 67 19.4 79 79 Calm 30.09 1019 10 16 0.00 0.00
4:53 am 04:53 Mostly Clear 73 22.8 67 19.4 81 81 Calm 30.09 1019 10 16 0.00 0.00
5:53 am 05:53 Clear 72 22.2 67 19.4 84 84 Calm 30.10 1019 10 16 0.00 0.00
6:53 am 06:53 Mostly Clear 72 22.2 67 19.4 84 84 Calm 30.11 1020 10 16 0.00 0.00
7:53 am 07:53 Mostly Sunny 73 22.8 67 19.4 81 81 Calm 30.13 1020 10 16 0.00 0.00
8:53 am 08:53 Sunny 75 23.9 68 20 79 79 E 3 6 30.14 1021 10 16 0.00 0.00
9:53 am 09:53 Sunny 78 25.6 70 21.1 76 76 VRB 5 7 30.15 1021 10 16 0.00 0.00
10:53 am 10:53 Sunny 80 26.7 68 20 67 67 SSE 5 7 30.15 1021 10 16 0.00 0.00
11:53 am 11:53 Sunny 83 28.3 66 18.9 57 57 SSE 8 13 30.14 1021 10 16 0.00 0.00
12:53 pm 12:53 Mostly Sunny 86 30 66 18.9 51 51 Calm 30.13 1020 10 16 0.00 0.00
1:53 pm 13:53 Partly Cloudy 88 31.1 67 19.4 50 50 VRB 6 9 30.11 1020 10 16 0.00 0.00
2:53 pm 14:53 Partly Cloudy 87 30.6 66 18.9 50 50 VRB 6 9 30.09 1019 10 16 0.00 0.00
3:53 pm 15:53 Mostly Sunny 88 31.1 66 18.9 48 48 VRB 6 9 30.06 1018 10 16 0.00 0.00
4:53 pm 16:53 Partly Cloudy 88 31.1 66 18.9 48 48 E 7 11 30.05 1018 10 16 0.00 0.00
5:53 pm 17:53 Sunny 87 30.6 65 18.3 48 48 E 7 11 30.05 1018 10 16 0.00 0.00
6:53 pm 18:53 Sunny 85 29.4 65 18.3 51 51 VRB 5 7 30.05 1018 10 16 0.00 0.00
7:53 pm 19:53 Mostly Sunny 84 28.9 66 18.9 55 55 E 3 6 30.06 1018 10 16 0.00 0.00
8:53 pm 20:53 Clear 82 27.8 67 19.4 60 60 Calm 30.06 1018 10 16 0.00 0.00
9:53 pm 21:53 Partly Cloudy 79 26.1 67 19.4 67 67 SSE 14 22 30.09 1019 10 16 0.00 0.00
10:53 pm 22:53 Mostly Clear 73 22.8 72 22.2 96 96 Calm 30.11 1020 10 16 0.01 0.25
11:53 pm 23:53 Clear 74 23.3 71 21.7 91 91 VRB 3 6 30.11 1020 10 16 0.00 0.00

Powered by AerisWeather